DHK516 EDDV-EDDS

Flight info

Callsign DHK516
Flight time 0h 51m
Altitude 30000
Route EDDV/09L N0380F300 NORT1Y NORTA P605 TOSTU T726 LBU DCT EDDS/25
Aircraft B737/M-V/N

Departure

Time 2026-05-07 14:52
Airport Hannover Airport (EDDV)

Arrival

Time 2026-05-07 15:43
Airport Stuttgart Airport (EDDS)
Time Latitude Longitude Altitude Speed Heading
2026-05-07 14:37 52.45865 9.68636 196 ft 0 kts
2026-05-07 14:44 52.45862 9.68635 190 ft 2 kts
2026-05-07 14:44 52.45846 9.68634 201 ft 2 kts
2026-05-07 14:45 52.45829 9.68634 197 ft 2 kts
2026-05-07 14:45 52.45813 9.68633 193 ft 2 kts 359°
2026-05-07 14:45 52.45796 9.68638 190 ft 2 kts 324°
2026-05-07 14:45 52.45787 9.68659 206 ft 2 kts 284°
2026-05-07 14:46 52.45785 9.68671 197 ft 0 kts 275°
2026-05-07 14:48 52.45785 9.68663 206 ft 2 kts 272°
2026-05-07 14:48 52.45786 9.68603 203 ft 8 kts 271°
2026-05-07 14:49 52.45789 9.68492 190 ft 11 kts 273°
2026-05-07 14:49 52.45785 9.68360 201 ft 11 kts 242°
2026-05-07 14:49 52.45726 9.68302 190 ft 10 kts 205°
2026-05-07 14:49 52.45664 9.68252 198 ft 10 kts 212°
2026-05-07 14:50 52.45650 9.68152 190 ft 9 kts 274°
2026-05-07 14:50 52.45653 9.68044 190 ft 10 kts 272°
2026-05-07 14:50 52.45656 9.67926 190 ft 11 kts 272°
2026-05-07 14:50 52.45653 9.67788 193 ft 13 kts 253°
2026-05-07 14:51 52.45583 9.67702 196 ft 13 kts 188°
2026-05-07 14:51 52.45498 9.67766 191 ft 15 kts 113°
2026-05-07 14:51 52.45488 9.68065 184 ft 57 kts 91°
2026-05-07 14:51 52.45458 9.69158 190 ft 131 kts 92°
2026-05-07 14:52 52.45417 9.70938 454 ft 167 kts 91°
2026-05-07 14:52 52.45359 9.72833 1484 ft 164 kts 92°
2026-05-07 14:52 52.45310 9.74709 2384 ft 168 kts 90°
2026-05-07 14:52 52.45271 9.76733 3004 ft 191 kts 91°
2026-05-07 14:53 52.45221 9.78937 3817 ft 188 kts 90°
2026-05-07 14:53 52.45171 9.81068 4818 ft 189 kts 91°
2026-05-07 14:53 52.45097 9.83336 5407 ft 210 kts 92°
2026-05-07 14:53 52.44996 9.85840 6126 ft 229 kts 92°
2026-05-07 14:54 52.44806 9.88413 7243 ft 225 kts 107°
2026-05-07 14:54 52.43986 9.90598 8170 ft 235 kts 137°
2026-05-07 14:54 52.42504 9.91854 8950 ft 246 kts 160°
2026-05-07 14:54 52.40840 9.92617 9807 ft 253 kts 169°
2026-05-07 14:55 52.39068 9.92651 10359 ft 272 kts 190°
2026-05-07 14:55 52.37114 9.91912 10544 ft 304 kts 193°
2026-05-07 14:55 52.34942 9.91137 10847 ft 329 kts 191°
2026-05-07 14:55 52.32655 9.90443 11524 ft 339 kts 190°
2026-05-07 14:56 52.30307 9.89795 12409 ft 343 kts 189°
2026-05-07 14:56 52.27967 9.89176 13278 ft 347 kts 189°
2026-05-07 14:56 52.25559 9.88545 14134 ft 352 kts 189°
2026-05-07 14:56 52.23114 9.87964 14972 ft 356 kts 188°
2026-05-07 14:57 52.20637 9.87474 15867 ft 359 kts 187°
2026-05-07 14:57 52.18122 9.87006 16744 ft 364 kts 187°
2026-05-07 14:57 52.15622 9.86543 17606 ft 368 kts 187°
2026-05-07 14:57 52.13061 9.86062 18451 ft 372 kts 187°
2026-05-07 14:58 52.10469 9.85569 19196 ft 376 kts 187°
2026-05-07 14:58 52.08574 9.85205 19759 ft 378 kts 188°
2026-05-07 14:58 52.07410 9.84980 20101 ft 379 kts 188°
2026-05-07 14:59 52.07284 9.84956 20139 ft 379 kts 188°
2026-05-07 14:59 52.07262 9.84951 20144 ft 379 kts 188°
2026-05-07 14:59 52.06043 9.84716 20498 ft 381 kts 188°
2026-05-07 14:59 52.03401 9.84205 21250 ft 384 kts 188°
2026-05-07 15:00 52.00766 9.83694 21974 ft 387 kts 188°
2026-05-07 15:00 51.98069 9.83172 22681 ft 392 kts 188°
2026-05-07 15:00 51.95348 9.82646 23404 ft 395 kts 188°
2026-05-07 15:00 51.92600 9.82116 24031 ft 399 kts 188°
2026-05-07 15:01 51.89832 9.81583 24631 ft 401 kts 188°
2026-05-07 15:01 51.87047 9.81048 25237 ft 404 kts 188°
2026-05-07 15:01 51.84291 9.80519 25930 ft 403 kts 188°
2026-05-07 15:01 51.81521 9.79991 26765 ft 399 kts 188°
2026-05-07 15:02 51.78764 9.79465 27589 ft 396 kts 187°
2026-05-07 15:02 51.76026 9.78942 28376 ft 394 kts 187°
2026-05-07 15:02 51.73309 9.78424 29175 ft 391 kts 187°
2026-05-07 15:02 51.70612 9.77910 29901 ft 389 kts 187°
2026-05-07 15:03 51.67940 9.77401 30048 ft 394 kts 187°
2026-05-07 15:03 51.65209 9.76881 30070 ft 396 kts 187°
2026-05-07 15:03 51.59747 9.75841 30065 ft 392 kts 187°
2026-05-07 15:04 51.54362 9.74808 30071 ft 390 kts 187°
2026-05-07 15:04 51.48961 9.73775 30045 ft 389 kts 187°
2026-05-07 15:05 51.43610 9.72814 30054 ft 387 kts 186°
2026-05-07 15:05 51.38200 9.71956 30051 ft 393 kts 186°
2026-05-07 15:06 51.32829 9.71103 30052 ft 388 kts 186°
2026-05-07 15:06 51.27421 9.70231 30062 ft 392 kts 186°
2026-05-07 15:07 51.22019 9.69361 30043 ft 389 kts 186°
2026-05-07 15:07 51.16614 9.69112 30062 ft 388 kts 179°
2026-05-07 15:08 51.11219 9.69332 30057 ft 388 kts 179°
2026-05-07 15:08 51.05801 9.69534 30057 ft 390 kts 179°
2026-05-07 15:09 51.00386 9.69705 30057 ft 392 kts 179°
2026-05-07 15:09 50.94904 9.69870 30055 ft 394 kts 179°
2026-05-07 15:10 50.89397 9.70034 30050 ft 395 kts 179°
2026-05-07 15:10 50.83926 9.70338 30049 ft 396 kts 176°
2026-05-07 15:11 50.78429 9.70986 30046 ft 396 kts 176°
2026-05-07 15:11 50.72916 9.71613 30047 ft 396 kts 177°
2026-05-07 15:12 50.67439 9.72192 30048 ft 397 kts 177°
2026-05-07 15:12 50.61920 9.72762 30047 ft 397 kts 177°
2026-05-07 15:13 50.56392 9.73322 30047 ft 397 kts 177°
2026-05-07 15:13 50.50876 9.73881 30052 ft 397 kts 177°
2026-05-07 15:14 50.45392 9.74438 30047 ft 398 kts 177°
2026-05-07 15:14 50.39864 9.74998 30045 ft 397 kts 177°
2026-05-07 15:15 50.34346 9.75555 30053 ft 396 kts 178°
2026-05-07 15:15 50.28818 9.76113 30056 ft 397 kts 177°
2026-05-07 15:16 50.23326 9.76665 30044 ft 398 kts 178°
2026-05-07 15:16 50.17792 9.77220 30049 ft 398 kts 178°
2026-05-07 15:17 50.12261 9.77774 30053 ft 398 kts 178°
2026-05-07 15:17 50.06728 9.78325 30040 ft 398 kts 178°
2026-05-07 15:18 50.01194 9.78721 30042 ft 398 kts 179°
2026-05-07 15:18 49.95680 9.79049 30047 ft 398 kts 179°
2026-05-07 15:19 49.90134 9.79394 30043 ft 399 kts 179°
2026-05-07 15:19 49.84583 9.79751 30050 ft 399 kts 179°
2026-05-07 15:20 49.79037 9.80109 30043 ft 398 kts 179°
2026-05-07 15:20 49.73495 9.80465 29429 ft 404 kts 179°
2026-05-07 15:21 49.70628 9.80644 28987 ft 420 kts 179°
2026-05-07 15:21 49.67672 9.80791 28512 ft 425 kts 180°
2026-05-07 15:21 49.64746 9.80922 28048 ft 423 kts 180°
2026-05-07 15:21 49.61814 9.81056 27578 ft 419 kts 180°
2026-05-07 15:22 49.58923 9.81499 27119 ft 417 kts 172°
2026-05-07 15:22 49.56073 9.82272 26679 ft 414 kts 171°
2026-05-07 15:22 49.53241 9.83092 26238 ft 411 kts 171°
2026-05-07 15:22 49.50460 9.83902 25811 ft 409 kts 171°
2026-05-07 15:23 49.47665 9.84702 25384 ft 407 kts 171°
2026-05-07 15:23 49.44880 9.85486 24967 ft 406 kts 172°
2026-05-07 15:23 49.42104 9.86256 24547 ft 404 kts 172°
2026-05-07 15:23 49.39336 9.87018 24144 ft 403 kts 172°
2026-05-07 15:24 49.36579 9.87773 23743 ft 402 kts 172°
2026-05-07 15:24 49.33823 9.88528 23291 ft 401 kts 172°
2026-05-07 15:24 49.31114 9.89269 22824 ft 399 kts 172°
2026-05-07 15:24 49.28383 9.90015 22367 ft 398 kts 172°
2026-05-07 15:25 49.25661 9.90759 21905 ft 396 kts 172°
2026-05-07 15:25 49.22960 9.91477 21449 ft 392 kts 175°
2026-05-07 15:25 49.20279 9.91326 20987 ft 382 kts 196°
2026-05-07 15:25 49.17864 9.89823 20560 ft 371 kts 215°
2026-05-07 15:26 49.15923 9.87333 20145 ft 360 kts 230°
2026-05-07 15:26 49.14513 9.84223 19716 ft 354 kts 246°
2026-05-07 15:26 49.13577 9.80775 19313 ft 350 kts 251°
2026-05-07 15:26 49.12752 9.77288 18904 ft 348 kts 252°
2026-05-07 15:27 49.11949 9.73813 18496 ft 346 kts 251°
2026-05-07 15:27 49.11151 9.70394 18055 ft 344 kts 251°
2026-05-07 15:27 49.10338 9.66971 17604 ft 343 kts 251°
2026-05-07 15:27 49.09464 9.63582 17139 ft 343 kts 244°
2026-05-07 15:28 49.08173 9.60502 16697 ft 345 kts 233°
2026-05-07 15:28 49.06560 9.57794 16253 ft 345 kts 227°
2026-05-07 15:28 49.04881 9.55188 15812 ft 343 kts 227°
2026-05-07 15:28 49.03203 9.52599 15392 ft 342 kts 227°
2026-05-07 15:29 49.01555 9.50044 14973 ft 341 kts 227°
2026-05-07 15:29 48.99899 9.47463 14556 ft 340 kts 227°
2026-05-07 15:29 48.98260 9.44897 14137 ft 335 kts 227°
2026-05-07 15:29 48.96651 9.42375 13709 ft 329 kts 227°
2026-05-07 15:30 48.95065 9.39893 13244 ft 324 kts 227°
2026-05-07 15:30 48.93478 9.37504 12784 ft 320 kts 220°
2026-05-07 15:30 48.91519 9.35952 12331 ft 320 kts 197°
2026-05-07 15:30 48.89311 9.35635 11891 ft 319 kts 177°
2026-05-07 15:31 48.87169 9.36477 11474 ft 318 kts 161°
2026-05-07 15:31 48.85153 9.37737 11058 ft 315 kts 156°
2026-05-07 15:31 48.83398 9.39713 10604 ft 317 kts 132°
2026-05-07 15:31 48.82323 9.42640 10199 ft 318 kts 107°
2026-05-07 15:32 48.82073 9.45905 9783 ft 316 kts 84°
2026-05-07 15:32 48.82527 9.49146 9350 ft 313 kts 74°
2026-05-07 15:32 48.83121 9.52304 8906 ft 310 kts 73°
2026-05-07 15:32 48.83733 9.55440 8474 ft 308 kts 73°
2026-05-07 15:33 48.84336 9.58556 8037 ft 307 kts 73°
2026-05-07 15:33 48.84927 9.61670 7603 ft 304 kts 73°
2026-05-07 15:33 48.85501 9.64734 7162 ft 298 kts 73°
2026-05-07 15:33 48.86059 9.67742 6748 ft 293 kts 73°
2026-05-07 15:34 48.86492 9.70743 6313 ft 290 kts 90°
2026-05-07 15:34 48.85987 9.73620 6085 ft 280 kts 122°
2026-05-07 15:34 48.84730 9.75737 5879 ft 269 kts 147°
2026-05-07 15:34 48.83072 9.76892 5683 ft 256 kts 170°
2026-05-07 15:35 48.81350 9.77001 5553 ft 242 kts 192°
2026-05-07 15:35 48.80295 9.76543 5461 ft 235 kts 207°
2026-05-07 15:35 48.78958 9.75207 5326 ft 228 kts 225°
2026-05-07 15:35 48.77954 9.73381 5207 ft 225 kts 242°
2026-05-07 15:36 48.77251 9.70405 5034 ft 226 kts 257°
2026-05-07 15:36 48.77005 9.68868 4977 ft 227 kts 258°
2026-05-07 15:36 48.76647 9.66515 4841 ft 228 kts 259°
2026-05-07 15:36 48.76293 9.64169 4707 ft 227 kts 259°
2026-05-07 15:37 48.75943 9.61877 4575 ft 226 kts 258°
2026-05-07 15:37 48.75589 9.59572 4423 ft 222 kts 258°
2026-05-07 15:37 48.75239 9.57304 4304 ft 220 kts 258°
2026-05-07 15:37 48.74890 9.55055 4153 ft 219 kts 259°
2026-05-07 15:38 48.74539 9.52810 4052 ft 219 kts 258°
2026-05-07 15:38 48.74188 9.50565 4015 ft 219 kts 258°
2026-05-07 15:38 48.73864 9.48321 3985 ft 214 kts 261°
2026-05-07 15:38 48.73547 9.46207 3969 ft 202 kts 257°
2026-05-07 15:39 48.73186 9.44219 3871 ft 192 kts 256°
2026-05-07 15:39 48.72819 9.42299 3631 ft 186 kts 257°
2026-05-07 15:39 48.72464 9.40445 3400 ft 180 kts 256°
2026-05-07 15:39 48.72125 9.38678 3157 ft 173 kts 257°
2026-05-07 15:40 48.71794 9.36943 2924 ft 170 kts 256°
2026-05-07 15:40 48.71470 9.35251 2678 ft 162 kts 257°
2026-05-07 15:40 48.71168 9.33676 2473 ft 154 kts 258°
2026-05-07 15:40 48.70877 9.32142 2295 ft 148 kts 258°
2026-05-07 15:41 48.70596 9.30667 2070 ft 143 kts 257°
2026-05-07 15:41 48.70316 9.29259 1866 ft 135 kts 257°
2026-05-07 15:41 48.70052 9.27918 1712 ft 133 kts 258°
2026-05-07 15:41 48.69815 9.26570 1549 ft 131 kts 258°
2026-05-07 15:42 48.69556 9.25224 1448 ft 136 kts 257°
2026-05-07 15:42 48.69299 9.23869 1295 ft 131 kts 257°
2026-05-07 15:42 48.69080 9.22682 1284 ft 101 kts 254°
2026-05-07 15:42 48.68923 9.21850 1285 ft 64 kts 253°
2026-05-07 15:43 48.68804 9.21223 1284 ft 57 kts 254°
2026-05-07 15:43 48.68708 9.20717 1286 ft 43 kts 254°
2026-05-07 15:43 48.68630 9.20308 1284 ft 38 kts 254°
2026-05-07 15:43 48.68549 9.20068 1284 ft 12 kts 206°
2026-05-07 15:44 48.68479 9.20070 1286 ft 9 kts 163°
2026-05-07 15:44 48.68431 9.20091 1286 ft 6 kts 163°
2026-05-07 15:44 48.68394 9.20109 1285 ft 6 kts 163°
2026-05-07 15:44 48.68358 9.20142 1284 ft 7 kts 115°
2026-05-07 15:45 48.68367 9.20229 1284 ft 11 kts 74°
2026-05-07 15:45 48.68393 9.20360 1286 ft 15 kts 75°
2026-05-07 15:45 48.68426 9.20529 1285 ft 18 kts 73°
2026-05-07 15:45 48.68455 9.20687 1285 ft 7 kts 74°
2026-05-07 15:46 48.68384 9.20742 1284 ft 1 kts 163°
2026-05-07 15:46 48.68384 9.20743 1288 ft 0 kts 163°